Lid_Strength_Index
11 11 10 10 11 11 11 10 10 11 10 10 10 8 8 8 5 3 2 3 3 2 2 1 3 3 2 1 2 2 3 3 3 4 4 5 5 6 6 4 5 6 7
12 11 11 11 11 11 11 11 10 11 10 10 9 8 8 8 6 3 3 3 3 3 2 1 3 3 2 1 2 2 2 3 3 4 5 7 7 7 7 7 8 9 8
12 12 11 11 12 12 12 11 11 11 10 10 8 8 8 7 5 5 5 4 3 3 3 3 4 4 2 1 1 2 2 4 3 3 4 6 7 7 7 8 9 9 9
13 12 12 11 12 12 12 11 12 12 10 9 9 9 9 9 7 7 6 4 3 3 3 3 3 4 3 1 1 1 2 3 4 4 5 4 5 7 9 8 9 9 10
13 13 12 12 12 12 12 12 12 12 10 9 9 9 9 8 7 6 6 4 4 4 4 3 3 3 3 1 1 1 2 2 3 4 5 5 6 5 6 9 10 11 11
13 13 12 12 13 13 12 12 12 12 11 10 9 10 10 9 8 7 7 5 5 5 4 4 4 2 3 1 1 1 2 2 3 4 4 5 5 6 6 7 8 10 11
13 13 13 13 13 13 13 13 12 11 12 11 10 10 9 9 8 7 7 6 6 6 6 5 5 1 1 0 1 1 2 2 3 3 3 4 5 5 5 6 8 9 11
13 13 13 13 13 13 13 13 13 11 12 12 11 10 10 9 8 7 7 7 7 7 6 5 5 3 0 0 1 1 2 2 3 3 3 3 4 4 4 5 6 9 11
13 13 13 13 14 14 14 14 13 11 11 11 12 11 11 11 9 9 7 8 7 6 6 6 5 3 0 0 0 2 2 2 3 3 3 3 4 3 4 4 4 5 9
14 14 14 14 14 14 14 14 13 12 11 10 11 11 11 10 10 9 9 8 8 7 6 6 6 3 1 1 1 2 2 3 2 3 3 3 3 3 3 4 3 4 6
14 15 14 14 14 15 15 14 13 12 11 10 10 12 11 11 10 10 10 9 9 8 7 7 6 5 1 1 2 2 3 3 3 3 3 3 3 3 4 4 3 4 7
15 15 15 15 15 15 15 15 14 13 12 10 10 11 12 11 11 11 11 10 10 9 9 8 7 6 3 2 2 3 3 3 4 3 4 4 5 5 4 4 5 6 8
15 15 16 15 15 16 16 15 14 13 12 11 10 10 11 11 11 11 11 10 10 10 9 9 9 8 6 5 4 4 4 4 4 5 5 5 5 6 6 6 7 7 8
15 15 16 16 16 15 16 16 15 14 12 11 11 10 11 10 11 11 11 11 10 10 10 10 10 9 8 7 6 6 7 8 8 8 8 7 6 7 6 6 7 8 9
16 16 16 16 16 16 16 16 15 14 13 12 12 11 10 10 11 10 12 11 11 11 10 10 10 10 10 9 8 9 9 9 11 11 12 12 13 12 8 7 8 8 10
16 17 16 16 17 17 17 16 16 14 13 13 13 11 11 11 11 11 11 11 11 11 11 11 11 11 10 11 11 10 11 11 12 12 12 11 12 10 10 9 8 8 9
15 15 16 16 16 16 16 17 16 15 14 13 13 13 12 12 11 11 11 11 11 11 11 11 11 11 11 11 11 12 11 12 12 12 12 13 13 12 11 10 10 11 9
16 16 16 16 16 16 17 16 16 15 14 14 13 13 12 12 12 12 11 11 11 11 11 11 11 11 11 11 11 12 12 13 13 13 13 13 13 12 11 11 12 12 12
15 15 16 16 16 16 17 16 16 16 15 14 14 13 13 13 12 12 12 12 12 12 11 11 11 11 11 10 10 11 12 12 13 13 13 13 12 12 12 12 13 14 14
15 16 17 17 16 16 17 16 17 16 16 15 14 14 14 13 13 14 13 13 13 13 13 13 13 13 12 11 10 11 12 13 14 14 13 14 12 12 12 13 14 15 15
16 17 17 18 17 17 17 17 17 17 15 16 16 16 15 15 14 14 15 14 14 14 14 14 15 14 14 12 11 11 13 13 14 14 15 14 12 12 12 13 14 15 15
16 17 17 18 19 17 17 17 17 17 17 17 18 19 20 16 16 17 18 18 16 16 17 16 15 15 15 13 12 11 11 12 14 15 15 15 11 11 12 14 13 13 16
15 16 17 19 21 19 18 18 19 19 20 20 20 21 21 20 19 17 18 17 18 17 17 17 16 16 16 16 13 12 11 12 15 15 14 13 12 12 13 13 13 18 17
17 18 18 19 19 20 19 19 20 20 20 19 20 21 20 21 22 19 18 18 18 18 18 17 16 17 17 16 16 15 15 14 15 14 15 14 15 14 16 16 16 18 18
19 18 17 18 18 19 19 20 20 19 19 19 20 19 19 20 20 20 19 19 19 17 18 17 17 17 17 16 15 15 16 15 15 16 16 15 15 16 16 16 17 18 19
20 19 18 18 19 19 18 18 19 18 18 19 19 19 19 20 20 20 20 17 16 16 15 15 17 18 16 14 13 13 12 13 14 17 18 17 16 16 17 17 16 16 17